Wind_Speed
13 13 13 13 13 13 13 13 13 12 12 12 11 11 10 10 9 9 8 8 9 9 9 9 9 9 9 10 9 9 8 8 8 8 8 7 7 7 7 6 5 5 5
15 15 15 15 15 15 15 14 14 14 13 13 13 13 12 12 11 11 10 10 10 10 10 10 10 10 10 10 10 10 9 9 9 9 9 8 8 7 7 7 6 6 5
17 17 17 17 17 17 17 17 16 16 16 15 15 15 14 14 13 13 12 12 11 11 12 11 11 11 10 10 10 10 10 10 10 10 10 9 8 8 7 7 7 6 6
19 19 19 19 19 19 19 19 19 19 18 18 17 17 16 16 15 15 15 14 13 13 13 13 13 12 12 11 11 11 11 11 11 10 10 10 9 9 9 8 8 7 7
21 21 21 21 21 21 21 21 21 21 21 20 20 19 19 18 17 17 17 17 16 16 15 15 15 14 14 13 12 12 12 12 11 11 11 11 10 10 10 9 9 8 8
21 22 22 23 23 23 22 22 23 23 23 23 22 21 21 20 20 19 19 18 18 18 17 17 17 16 16 15 14 13 13 13 13 12 12 12 11 11 11 10 10 9 9
22 22 22 23 24 24 24 24 24 24 24 24 24 23 23 23 22 21 21 20 19 19 19 19 19 18 18 17 16 15 15 14 14 14 13 13 12 12 12 11 11 11 10
23 23 23 23 25 25 25 25 25 25 25 26 26 25 25 25 24 24 23 22 21 21 21 20 21 20 20 19 18 18 17 16 16 16 15 15 14 13 13 13 12 12 12
24 24 24 24 25 26 27 27 27 27 27 27 27 27 27 27 26 25 24 24 24 23 22 22 22 22 21 21 20 20 19 19 18 18 17 17 16 16 15 15 14 14 13
25 25 25 25 26 27 28 28 29 29 28 28 28 28 29 28 28 27 26 26 25 25 24 24 24 24 23 23 22 21 21 21 20 20 19 19 18 18 17 17 16 16 15
25 26 26 26 27 28 28 29 29 30 30 30 29 29 29 29 29 29 28 27 27 27 26 26 26 26 25 24 24 23 23 22 22 22 21 21 20 20 19 19 18 17 17
26 27 27 27 28 28 28 29 29 30 30 30 31 30 30 30 30 30 30 29 28 28 27 28 27 27 27 26 25 25 25 24 24 23 23 22 22 21 21 20 20 19 19
27 27 28 28 29 29 29 29 29 29 30 30 31 31 31 31 31 31 31 31 30 29 29 29 29 29 28 28 27 27 27 27 26 26 25 24 24 23 23 22 22 22 21
28 28 29 29 30 30 30 30 30 30 30 30 31 32 32 32 32 32 32 32 31 31 31 30 31 31 31 30 29 29 29 29 28 27 27 27 26 26 25 24 24 24 24
29 29 30 30 30 31 31 30 30 31 31 31 32 33 33 33 33 33 33 32 32 32 32 32 32 32 32 31 30 30 31 30 30 30 30 30 29 28 27 27 26 26 26
29 29 30 30 30 31 31 31 31 31 32 32 32 34 35 35 35 35 35 34 33 33 33 33 33 33 33 32 32 31 32 32 32 32 32 32 32 31 30 29 29 28 28
29 29 30 30 30 31 31 32 32 32 33 33 33 34 35 35 36 36 36 35 35 34 34 34 34 33 33 33 33 33 33 33 33 33 33 33 33 33 32 32 31 31 30
29 29 30 30 30 30 31 32 32 33 34 34 34 35 36 36 37 36 36 37 36 35 35 35 35 34 35 34 34 34 35 35 34 34 35 35 35 35 34 34 34 33 33
29 29 30 30 30 30 31 32 32 32 33 34 35 35 36 37 37 37 37 37 37 37 37 36 36 36 36 35 36 36 36 37 37 37 36 36 37 37 37 37 36 36 36
29 29 30 30 30 30 31 32 32 32 32 33 35 35 36 37 38 38 38 38 38 38 37 37 37 37 36 36 35 37 37 39 39 38 38 38 38 39 39 39 38 38 38
29 29 30 30 30 30 30 31 31 32 32 33 34 36 36 37 38 38 38 38 38 38 38 38 38 38 38 38 37 38 38 39 40 40 40 40 40 40 40 40 40 39 39
31 30 29 30 30 30 30 31 31 31 32 34 34 36 36 36 36 37 38 38 38 39 39 39 39 40 39 39 39 39 39 39 40 40 40 41 41 41 41 41 41 41 40
32 31 30 30 30 30 30 31 31 31 32 33 34 35 35 36 37 37 38 38 39 39 39 39 39 40 40 40 40 41 41 41 41 42 42 42 42 42 43 43 43 43 42
32 32 31 31 31 31 31 31 31 31 32 33 33 34 35 36 37 37 37 38 39 39 40 39 39 39 39 39 39 40 41 42 42 42 42 43 44 45 45 45 45 45 44
33 33 32 32 32 32 32 32 32 32 32 33 33 34 35 37 38 37 37 38 38 39 39 39 39 39 40 40 40 40 40 41 42 42 43 43 44 45 46 46 46 46 45
33 33 33 33 33 32 33 33 32 32 33 34 34 35 36 36 37 37 37 39 39 39 39 40 40 40 41 40 41 41 41 42 43 43 43 43 44 45 45 46 46 46 47
Wind_Direction
254 253 251 250 250 250 249 248 248 249 248 247 247 248 246 244 241 239 237 236 233 229 227 226 225 224 224 223 220 219 219 217 216 214 210 206 203 202 200 198 195 191 184
255 254 253 251 250 250 249 249 249 248 248 247 246 246 246 245 244 241 238 237 236 234 231 230 230 228 227 226 225 223 221 220 218 214 212 209 206 207 206 206 206 204 201
255 253 253 251 252 251 250 248 247 247 247 247 246 245 245 244 245 244 240 239 240 239 238 235 236 234 231 228 225 224 222 220 218 216 215 215 215 215 214 212 213 214 214
254 253 252 251 252 252 250 249 248 247 246 245 246 245 244 244 243 244 244 242 241 241 241 240 239 238 235 232 227 225 224 224 223 221 219 217 219 219 220 220 221 220 220
255 254 253 252 252 252 250 248 248 248 247 245 244 244 243 243 243 244 246 245 242 241 241 240 240 240 239 236 232 229 228 226 225 225 224 222 223 223 223 224 226 224 223
257 256 255 254 253 252 250 249 248 247 247 246 245 244 244 244 244 244 245 246 244 242 242 241 241 240 239 238 235 232 230 229 228 228 228 227 227 228 227 227 230 230 228
259 258 257 255 253 252 251 250 250 248 246 245 245 245 245 245 245 245 245 247 247 245 244 243 241 239 238 238 236 235 234 232 232 230 230 231 231 231 230 230 233 234 234
259 259 259 257 255 253 252 252 252 251 248 246 245 246 246 246 246 246 245 246 247 246 246 246 243 240 238 238 236 235 235 235 236 234 234 233 234 235 235 235 237 238 239
260 260 261 260 257 253 253 253 253 251 250 247 246 246 246 246 246 246 246 246 247 247 247 246 244 241 240 238 237 237 237 237 238 236 235 235 236 236 237 238 240 242 243
259 260 261 261 259 256 254 253 252 251 250 248 246 246 245 245 245 246 246 247 247 247 247 246 245 244 242 240 239 238 238 238 239 238 237 236 237 237 238 239 242 244 246
259 260 261 262 261 258 256 254 252 252 251 249 247 246 245 244 244 245 245 246 247 246 246 246 245 245 243 241 239 239 239 239 239 239 238 237 238 239 240 240 242 245 247
259 260 260 261 261 259 256 254 253 251 251 250 247 245 244 244 244 244 244 245 247 248 247 247 246 245 243 242 240 239 239 240 240 240 239 239 239 240 241 242 243 245 248
260 260 260 260 260 258 256 255 254 253 251 249 247 245 244 244 244 244 245 244 247 248 249 249 246 244 243 243 241 240 239 240 241 241 240 241 241 241 242 243 245 246 249
260 260 260 260 259 257 255 255 254 253 251 250 248 245 244 245 244 243 245 245 246 248 248 248 246 245 244 243 242 241 241 241 242 242 241 241 242 243 243 244 246 248 250
261 261 260 260 259 257 255 254 254 253 252 250 249 247 246 245 244 243 244 246 247 247 248 248 247 245 244 243 242 242 242 242 243 243 243 243 244 245 245 246 247 249 251
261 261 261 260 258 256 255 254 254 253 251 250 250 248 246 245 245 245 245 246 247 247 247 247 246 245 244 244 243 243 243 243 243 244 245 245 246 246 246 247 248 249 251
261 262 261 260 259 257 256 254 253 253 252 252 252 249 247 246 245 245 245 246 247 247 247 246 245 244 245 245 245 244 244 244 244 246 246 246 247 247 248 248 248 250 251
261 262 261 260 259 257 256 255 255 255 254 253 253 251 249 248 246 245 246 246 246 246 246 245 245 243 244 245 245 245 245 244 245 247 248 248 249 249 249 249 250 251 252
261 262 261 261 260 258 256 255 255 256 255 253 252 251 249 247 246 245 246 247 248 248 247 246 245 244 245 245 246 246 247 247 246 247 248 249 250 250 251 251 252 252 253
262 262 260 260 260 259 258 257 256 257 256 255 252 251 251 249 247 246 247 249 249 247 247 248 248 247 247 247 248 248 249 248 247 248 249 250 251 252 252 252 253 253 254
262 263 260 260 260 260 259 258 257 257 256 254 253 251 250 250 249 248 248 249 249 248 248 248 249 248 247 248 250 249 250 250 249 249 250 251 252 252 253 253 254 254 254
262 261 260 260 260 261 259 258 258 258 257 255 255 252 250 250 249 248 249 249 249 249 248 249 250 248 248 250 250 251 252 252 251 252 252 252 252 253 253 254 253 254 254
261 259 260 260 260 261 259 258 258 260 259 257 256 254 252 252 251 252 249 250 250 250 250 249 248 247 249 251 252 253 254 255 254 252 253 253 254 253 254 255 254 254 256
260 258 258 260 260 260 260 260 261 260 260 258 256 254 254 255 253 252 250 251 250 250 250 248 248 248 248 250 252 252 254 255 255 254 254 254 253 254 254 254 254 255 256
258 257 258 258 259 259 260 261 262 262 260 258 257 255 255 255 253 253 252 251 250 249 248 248 248 248 249 250 252 253 254 255 255 255 255 254 254 254 254 254 255 256 256
257 257 258 258 259 259 260 261 262 262 261 260 259 259 256 254 253 253 254 251 250 248 248 248 248 249 250 250 252 253 255 256 255 256 255 255 255 256 255 255 256 256 257
Height
5846 5846 5846 5847 5847 5848 5848 5849 5850 5851 5851 5852 5853 5853 5854 5855 5855 5856 5856 5857 5857 5857 5858 5858 5859 5859 5860 5861 5861 5862 5862 5863 5863 5863 5864 5864 5865 5865 5865 5865 5866 5866 5866
5843 5843 5844 5844 5845 5845 5846 5847 5848 5848 5849 5850 5851 5852 5852 5853 5853 5854 5855 5855 5856 5856 5856 5857 5858 5858 5859 5859 5860 5861 5861 5862 5862 5863 5863 5864 5864 5864 5865 5865 5865 5865 5866
5840 5840 5841 5841 5842 5842 5843 5844 5845 5846 5847 5848 5848 5849 5850 5851 5852 5852 5853 5853 5854 5855 5855 5856 5856 5857 5857 5858 5859 5859 5860 5860 5861 5862 5862 5863 5863 5864 5864 5864 5865 5865 5865
5835 5836 5837 5837 5838 5839 5839 5840 5841 5842 5844 5845 5846 5847 5848 5848 5849 5850 5851 5851 5852 5853 5853 5854 5855 5855 5856 5857 5857 5858 5858 5859 5860 5860 5861 5861 5862 5863 5863 5863 5864 5864 5864
5831 5832 5833 5833 5834 5835 5835 5836 5837 5838 5840 5841 5842 5843 5845 5846 5847 5847 5848 5849 5850 5851 5851 5852 5853 5853 5854 5855 5856 5856 5857 5858 5858 5859 5859 5860 5861 5861 5862 5862 5863 5863 5863
5827 5827 5828 5829 5829 5830 5831 5832 5833 5834 5835 5837 5838 5840 5841 5842 5843 5844 5845 5846 5847 5848 5849 5850 5850 5851 5852 5853 5854 5854 5855 5856 5856 5857 5858 5859 5859 5860 5860 5861 5861 5862 5862
5822 5822 5823 5824 5824 5825 5826 5827 5828 5829 5830 5832 5834 5835 5837 5838 5839 5841 5842 5843 5844 5845 5846 5847 5847 5848 5849 5850 5851 5852 5853 5854 5854 5855 5856 5857 5857 5858 5859 5859 5860 5860 5861
5817 5817 5818 5818 5819 5820 5821 5822 5823 5824 5825 5827 5829 5830 5832 5833 5835 5836 5838 5839 5840 5841 5842 5843 5844 5845 5846 5847 5848 5849 5850 5851 5852 5853 5853 5854 5855 5856 5857 5857 5858 5858 5859
5811 5812 5812 5813 5813 5814 5815 5817 5818 5819 5820 5821 5823 5825 5826 5828 5830 5831 5833 5834 5836 5836 5838 5839 5840 5841 5842 5844 5845 5846 5847 5848 5849 5850 5851 5852 5853 5854 5854 5855 5856 5857 5857
5806 5806 5806 5807 5807 5808 5809 5810 5811 5813 5814 5816 5817 5819 5821 5822 5824 5826 5827 5829 5831 5832 5833 5835 5836 5837 5838 5839 5841 5842 5843 5844 5845 5846 5847 5849 5850 5851 5852 5853 5853 5854 5855
5800 5800 5800 5801 5801 5802 5803 5804 5805 5806 5808 5809 5811 5813 5814 5817 5818 5820 5822 5824 5825 5827 5828 5830 5831 5832 5833 5835 5836 5838 5839 5840 5841 5842 5844 5845 5846 5847 5848 5849 5850 5851 5852
5793 5794 5794 5794 5794 5795 5796 5797 5798 5799 5801 5803 5804 5806 5808 5810 5812 5814 5816 5818 5819 5821 5823 5824 5826 5827 5828 5830 5831 5833 5834 5836 5837 5838 5840 5841 5842 5844 5845 5846 5847 5848 5848
5786 5787 5787 5787 5787 5788 5789 5790 5791 5792 5794 5795 5797 5799 5802 5804 5806 5807 5809 5811 5813 5814 5816 5818 5820 5821 5823 5824 5826 5828 5829 5831 5832 5834 5835 5837 5838 5839 5840 5842 5843 5843 5844
5779 5780 5780 5780 5780 5781 5781 5782 5784 5785 5787 5788 5790 5792 5795 5797 5799 5800 5802 5804 5806 5808 5810 5811 5813 5815 5817 5818 5820 5822 5824 5825 5827 5828 5830 5832 5833 5834 5836 5837 5838 5839 5840
5772 5772 5772 5772 5772 5773 5774 5775 5776 5778 5779 5781 5783 5785 5787 5789 5791 5793 5795 5797 5799 5801 5803 5804 5806 5808 5810 5812 5814 5816 5818 5819 5821 5823 5824 5826 5828 5829 5830 5832 5833 5834 5835
5764 5764 5764 5765 5765 5766 5766 5768 5769 5770 5771 5773 5775 5777 5779 5781 5784 5786 5788 5790 5792 5793 5795 5797 5799 5801 5803 5805 5807 5809 5811 5813 5815 5817 5818 5820 5822 5823 5824 5826 5827 5828 5829
5756 5756 5757 5757 5757 5758 5759 5760 5761 5763 5764 5765 5767 5768 5771 5773 5776 5778 5781 5782 5784 5786 5788 5789 5791 5793 5796 5798 5800 5802 5804 5806 5808 5810 5811 5813 5815 5816 5818 5819 5820 5821 5822
5749 5749 5749 5750 5750 5751 5752 5753 5754 5755 5756 5758 5759 5761 5763 5765 5767 5770 5773 5775 5776 5778 5780 5782 5783 5786 5788 5791 5793 5795 5797 5799 5801 5803 5805 5806 5808 5809 5811 5812 5813 5814 5815
5741 5742 5742 5742 5743 5743 5744 5745 5746 5747 5748 5750 5751 5753 5754 5756 5759 5761 5764 5766 5768 5770 5771 5773 5775 5778 5780 5783 5785 5787 5789 5791 5793 5795 5797 5798 5800 5801 5802 5804 5805 5806 5807
5734 5734 5734 5735 5735 5736 5737 5738 5739 5740 5741 5742 5743 5744 5746 5748 5750 5752 5755 5757 5759 5761 5763 5765 5767 5769 5772 5774 5777 5779 5781 5783 5785 5787 5788 5790 5791 5793 5794 5795 5796 5797 5798
5726 5726 5726 5727 5728 5728 5729 5730 5731 5732 5733 5734 5735 5736 5737 5739 5741 5744 5746 5748 5750 5753 5755 5756 5758 5761 5764 5766 5768 5770 5772 5774 5776 5778 5780 5781 5782 5783 5785 5786 5787 5789 5790
5718 5718 5718 5719 5720 5721 5721 5722 5723 5724 5724 5725 5726 5727 5729 5731 5733 5735 5737 5740 5742 5744 5746 5748 5750 5753 5755 5757 5759 5761 5763 5765 5767 5769 5770 5771 5773 5774 5775 5776 5778 5779 5780
5709 5710 5711 5711 5712 5713 5713 5714 5715 5716 5716 5717 5718 5719 5721 5723 5725 5726 5729 5731 5733 5735 5737 5739 5741 5743 5745 5747 5749 5751 5753 5755 5757 5759 5760 5761 5762 5764 5765 5767 5768 5769 5770
5701 5701 5702 5703 5704 5705 5705 5706 5707 5708 5709 5709 5710 5711 5712 5714 5715 5717 5720 5721 5723 5725 5727 5729 5731 5733 5735 5738 5739 5741 5743 5744 5746 5748 5750 5751 5752 5754 5755 5756 5757 5758 5760
5691 5693 5694 5695 5696 5696 5697 5698 5698 5699 5700 5701 5701 5703 5704 5705 5706 5708 5710 5712 5713 5715 5717 5719 5722 5724 5726 5728 5730 5731 5733 5734 5735 5737 5739 5740 5741 5742 5744 5745 5746 5748 5749
5682 5684 5685 5686 5687 5688 5689 5689 5690 5691 5691 5692 5692 5693 5695 5696 5697 5699 5700 5702 5704 5705 5707 5710 5712 5714 5716 5718 5720 5721 5723 5724 5725 5726 5727 5729 5730 5731 5732 5734 5735 5736 5738